JAL517 RJBB-RJTT

Flight info

Callsign JAL517
Flight time 0h 46m
Altitude 35000
Route SOVRI UPRAL YAGYU SHTLE Y71 XAC
Aircraft B77W/H-SDE1E2E3FGHIJ2J3J4J5M1RWXY/LB1D1

Departure

Time 2026-05-04 18:51
Airport Kansai International Airport (RJBB)

Arrival

Time 2026-05-04 19:37
Airport Tokyo Haneda International Airport (RJTT)
Time Latitude Longitude Altitude Speed Heading
2026-05-04 18:16 34.43121 135.24179 14 ft 0 kts 321°
2026-05-04 18:35 34.43111 135.24189 28 ft 2 kts 317°
2026-05-04 18:35 34.43099 135.24203 28 ft 2 kts 313°
2026-05-04 18:35 34.43088 135.24218 28 ft 2 kts 303°
2026-05-04 18:35 34.43081 135.24236 27 ft 2 kts 284°
2026-05-04 18:36 34.43080 135.24256 27 ft 2 kts 248°
2026-05-04 18:36 34.43087 135.24270 26 ft 1 kts 231°
2026-05-04 18:36 34.43088 135.24272 26 ft 0 kts 231°
2026-05-04 18:37 34.43036 135.24195 26 ft 18 kts 231°
2026-05-04 18:38 34.42956 135.24074 25 ft 19 kts 231°
2026-05-04 18:38 34.42870 135.23946 26 ft 20 kts 231°
2026-05-04 18:38 34.42788 135.23815 27 ft 13 kts 250°
2026-05-04 18:38 34.42794 135.23754 25 ft 7 kts 292°
2026-05-04 18:39 34.42831 135.23709 28 ft 8 kts 323°
2026-05-04 18:39 34.42878 135.23665 25 ft 9 kts 322°
2026-05-04 18:39 34.42936 135.23608 27 ft 13 kts 320°
2026-05-04 18:39 34.43013 135.23521 26 ft 17 kts 301°
2026-05-04 18:40 34.43017 135.23474 27 ft 7 kts 263°
2026-05-04 18:40 34.42984 135.23411 26 ft 12 kts 233°
2026-05-04 18:40 34.42978 135.23361 29 ft 7 kts 285°
2026-05-04 18:40 34.43019 135.23303 26 ft 10 kts 318°
2026-05-04 18:41 34.43087 135.23235 27 ft 16 kts 320°
2026-05-04 18:41 34.43186 135.23139 31 ft 20 kts 321°
2026-05-04 18:41 34.43299 135.23029 32 ft 23 kts 321°
2026-05-04 18:41 34.43439 135.22893 33 ft 28 kts 320°
2026-05-04 18:42 34.43604 135.22730 33 ft 33 kts 321°
2026-05-04 18:42 34.43680 135.22656 33 ft 1 kts 321°
2026-05-04 18:42 34.43691 135.22645 34 ft 3 kts 321°
2026-05-04 18:42 34.43713 135.22624 34 ft 5 kts 321°
2026-05-04 18:43 34.43748 135.22590 34 ft 8 kts 321°
2026-05-04 18:43 34.43795 135.22545 34 ft 10 kts 321°
2026-05-04 18:43 34.43850 135.22484 34 ft 12 kts 307°
2026-05-04 18:43 34.43852 135.22431 34 ft 3 kts 229°
2026-05-04 18:44 34.43828 135.22404 34 ft 6 kts 222°
2026-05-04 18:44 34.43802 135.22372 34 ft 10 kts 230°
2026-05-04 18:44 34.43717 135.22246 34 ft 19 kts 231°
2026-05-04 18:44 34.43621 135.22102 34 ft 25 kts 231°
2026-05-04 18:45 34.43497 135.21919 34 ft 31 kts 231°
2026-05-04 18:45 34.43350 135.21699 34 ft 36 kts 231°
2026-05-04 18:45 34.43182 135.21450 34 ft 39 kts 231°
2026-05-04 18:45 34.43136 135.21382 34 ft 2 kts 231°
2026-05-04 18:46 34.43122 135.21361 34 ft 5 kts 231°
2026-05-04 18:46 34.43093 135.21317 34 ft 9 kts 231°
2026-05-04 18:46 34.43048 135.21250 34 ft 12 kts 231°
2026-05-04 18:46 34.42988 135.21160 34 ft 15 kts 231°
2026-05-04 18:47 34.42914 135.21050 34 ft 18 kts 231°
2026-05-04 18:47 34.42827 135.20922 34 ft 21 kts 231°
2026-05-04 18:47 34.42750 135.20784 34 ft 13 kts 255°
2026-05-04 18:47 34.42751 135.20766 34 ft 2 kts 282°
2026-05-04 18:48 34.42759 135.20742 33 ft 5 kts 297°
2026-05-04 18:48 34.42768 135.20732 32 ft 0 kts 318°
2026-05-04 18:49 34.42770 135.20730 32 ft 2 kts 319°
2026-05-04 18:49 34.42796 135.20702 31 ft 8 kts 318°
2026-05-04 18:49 34.42856 135.20657 30 ft 11 kts 350°
2026-05-04 18:49 34.42917 135.20705 30 ft 12 kts 58°
2026-05-04 18:50 34.42938 135.20740 30 ft 1 kts 51°
2026-05-04 18:50 34.42939 135.20742 30 ft 1 kts 51°
2026-05-04 18:50 34.42972 135.20791 31 ft 27 kts 51°
2026-05-04 18:50 34.43382 135.21400 38 ft 156 kts 51°
2026-05-04 18:51 34.44281 135.22742 462 ft 238 kts 50°
2026-05-04 18:51 34.45292 135.24268 2588 ft 225 kts 45°
2026-05-04 18:51 34.46585 135.25292 4054 ft 229 kts 14°
2026-05-04 18:51 34.48243 135.25267 4832 ft 251 kts 340°
2026-05-04 18:52 34.49686 135.24086 5936 ft 261 kts 313°
2026-05-04 18:52 34.50566 135.22086 7176 ft 271 kts 287°
2026-05-04 18:52 34.50570 135.19783 8429 ft 282 kts 259°
2026-05-04 18:52 34.49576 135.17652 9652 ft 300 kts 229°
2026-05-04 18:53 34.47742 135.16352 10731 ft 319 kts 199°
2026-05-04 18:53 34.45487 135.16290 11849 ft 332 kts 169°
2026-05-04 18:53 34.43404 135.17543 12973 ft 342 kts 140°
2026-05-04 18:53 34.41973 135.19854 14026 ft 349 kts 111°
2026-05-04 18:54 34.41395 135.22704 14936 ft 353 kts 93°
2026-05-04 18:54 34.41491 135.25677 15874 ft 356 kts 77°
2026-05-04 18:54 34.42221 135.28556 16805 ft 358 kts 60°
2026-05-04 18:54 34.43313 135.31299 17607 ft 368 kts 62°
2026-05-04 18:55 34.44312 135.34197 18509 ft 378 kts 67°
2026-05-04 18:55 34.45614 135.40514 20153 ft 397 kts 79°
2026-05-04 18:55 34.46090 135.43855 20944 ft 407 kts 79°
2026-05-04 18:56 34.46578 135.47264 21747 ft 416 kts 79°
2026-05-04 18:56 34.47105 135.50752 22579 ft 424 kts 79°
2026-05-04 18:56 34.47667 135.54307 23395 ft 433 kts 79°
2026-05-04 18:56 34.48254 135.57919 24097 ft 442 kts 79°
2026-05-04 18:57 34.48859 135.61613 24757 ft 451 kts 79°
2026-05-04 18:57 34.49473 135.65370 25421 ft 459 kts 80°
2026-05-04 18:57 34.50096 135.69203 26097 ft 466 kts 81°
2026-05-04 18:57 34.50725 135.73087 26721 ft 475 kts 81°
2026-05-04 18:58 34.50933 135.74373 26932 ft 477 kts 81°
2026-05-04 18:58 34.51131 135.75600 27135 ft 480 kts 81°
2026-05-04 18:58 34.51779 135.79612 27773 ft 488 kts 81°
2026-05-04 18:58 34.52435 135.83678 28422 ft 495 kts 82°
2026-05-04 18:59 34.53101 135.87810 28992 ft 502 kts 82°
2026-05-04 18:59 34.53772 135.91989 29516 ft 509 kts 82°
2026-05-04 18:59 34.54520 135.96211 30037 ft 516 kts 78°
2026-05-04 18:59 34.55583 136.00414 30492 ft 524 kts 72°
2026-05-04 19:00 34.56819 136.04584 30972 ft 528 kts 71°
2026-05-04 19:00 34.57968 136.08827 31471 ft 529 kts 78°
2026-05-04 19:00 34.58784 136.13176 31948 ft 529 kts 85°
2026-05-04 19:00 34.59110 136.16110 32233 ft 528 kts 90°
2026-05-04 19:01 34.59532 136.22014 32789 ft 533 kts 91°
2026-05-04 19:01 34.59828 136.26584 33190 ft 537 kts 91°
2026-05-04 19:01 34.60122 136.31114 33566 ft 541 kts 91°
2026-05-04 19:01 34.60427 136.35626 33954 ft 545 kts 90°
2026-05-04 19:02 34.60747 136.40217 34291 ft 548 kts 90°
2026-05-04 19:02 34.60967 136.43326 34494 ft 550 kts 90°
2026-05-04 19:02 34.61345 136.48612 34826 ft 554 kts 90°
2026-05-04 19:02 34.61523 136.51088 34906 ft 558 kts 90°
2026-05-04 19:03 34.62085 136.59018 35031 ft 573 kts 90°
2026-05-04 19:03 34.62726 136.68133 35084 ft 586 kts 90°
2026-05-04 19:04 34.63420 136.78113 35094 ft 599 kts 90°
2026-05-04 19:04 34.64119 136.88278 35079 ft 609 kts 90°
2026-05-04 19:05 34.64817 136.98555 35075 ft 613 kts 90°
2026-05-04 19:05 34.65510 137.08876 35060 ft 614 kts 90°
2026-05-04 19:06 34.66195 137.19231 35064 ft 614 kts 90°
2026-05-04 19:06 34.66865 137.29493 35055 ft 613 kts 90°
2026-05-04 19:07 34.67524 137.39661 35026 ft 587 kts 91°
2026-05-04 19:07 34.67842 137.44538 35019 ft 570 kts 91°
2026-05-04 19:07 34.68146 137.49275 35012 ft 555 kts 91°
2026-05-04 19:08 34.68431 137.53783 35018 ft 542 kts 92°
2026-05-04 19:08 34.68679 137.57802 35029 ft 542 kts 92°
2026-05-04 19:08 34.69227 137.66893 35031 ft 543 kts 92°
2026-05-04 19:09 34.69782 137.76034 35027 ft 543 kts 92°
2026-05-04 19:09 34.70335 137.85171 35016 ft 543 kts 92°
2026-05-04 19:10 34.70884 137.94334 35014 ft 543 kts 92°
2026-05-04 19:10 34.71410 138.03502 35013 ft 542 kts 94°
2026-05-04 19:11 34.71536 138.12496 35000 ft 525 kts 98°
2026-05-04 19:11 34.71525 138.21322 35015 ft 520 kts 98°
2026-05-04 19:12 34.71534 138.34499 35012 ft 520 kts 98°
2026-05-04 19:13 34.71556 138.41804 35015 ft 521 kts 97°
2026-05-04 19:13 34.71575 138.48855 35012 ft 522 kts 97°
2026-05-04 19:14 34.71590 138.57627 35010 ft 524 kts 98°
2026-05-04 19:14 34.71601 138.66459 34750 ft 520 kts 98°
2026-05-04 19:14 34.71601 138.70880 33909 ft 530 kts 98°
2026-05-04 19:15 34.71588 138.75497 32639 ft 567 kts 98°
2026-05-04 19:15 34.71580 138.80343 31313 ft 581 kts 97°
2026-05-04 19:15 34.71571 138.85346 29373 ft 601 kts 97°
2026-05-04 19:15 34.71548 138.90465 27270 ft 601 kts 96°
2026-05-04 19:16 34.71530 138.95471 25468 ft 586 kts 95°
2026-05-04 19:16 34.71507 139.00344 24100 ft 567 kts 95°
2026-05-04 19:16 34.71482 139.05052 22967 ft 545 kts 94°
2026-05-04 19:16 34.71457 139.09636 22117 ft 517 kts 94°
2026-05-04 19:17 34.71432 139.13838 21676 ft 486 kts 94°
2026-05-04 19:17 34.71406 139.17821 21273 ft 459 kts 95°
2026-05-04 19:17 34.71375 139.21651 20300 ft 449 kts 94°
2026-05-04 19:17 34.71337 139.25445 18817 ft 452 kts 93°
2026-05-04 19:18 34.71300 139.29314 16812 ft 461 kts 92°
2026-05-04 19:18 34.71267 139.33225 14884 ft 465 kts 91°
2026-05-04 19:18 34.71324 139.37127 13262 ft 457 kts 82°
2026-05-04 19:18 34.72181 139.40755 11932 ft 437 kts 62°
2026-05-04 19:19 34.73722 139.43804 10996 ft 408 kts 47°
2026-05-04 19:19 34.75618 139.46166 10480 ft 373 kts 36°
2026-05-04 19:19 34.77512 139.48121 10221 ft 341 kts 35°
2026-05-04 19:19 34.79194 139.49839 10001 ft 315 kts 35°
2026-05-04 19:20 34.80789 139.51468 9962 ft 287 kts 34°
2026-05-04 19:20 34.82312 139.53021 9976 ft 284 kts 34°
2026-05-04 19:20 34.83825 139.54564 9974 ft 283 kts 35°
2026-05-04 19:20 34.85324 139.56101 9975 ft 281 kts 35°
2026-05-04 19:21 34.86817 139.57639 9978 ft 281 kts 35°
2026-05-04 19:21 34.88308 139.59179 9977 ft 280 kts 35°
2026-05-04 19:21 34.89793 139.60717 9976 ft 280 kts 35°
2026-05-04 19:21 34.91277 139.62258 9978 ft 280 kts 35°
2026-05-04 19:22 34.92757 139.63796 9980 ft 280 kts 36°
2026-05-04 19:22 34.94238 139.65339 9981 ft 280 kts 36°
2026-05-04 19:22 34.95716 139.66879 9980 ft 280 kts 36°
2026-05-04 19:22 34.97201 139.68427 9886 ft 283 kts 36°
2026-05-04 19:23 34.98717 139.70006 9423 ft 290 kts 37°
2026-05-04 19:23 35.00265 139.71620 8909 ft 295 kts 38°
2026-05-04 19:23 35.01815 139.73239 8429 ft 300 kts 38°
2026-05-04 19:23 35.03434 139.74933 7930 ft 305 kts 39°
2026-05-04 19:24 35.05030 139.76603 7451 ft 309 kts 40°
2026-05-04 19:24 35.06672 139.78323 6965 ft 310 kts 41°
2026-05-04 19:24 35.08280 139.80008 6448 ft 300 kts 41°
2026-05-04 19:24 35.09830 139.81633 5937 ft 291 kts 41°
2026-05-04 19:25 35.11348 139.83230 5416 ft 283 kts 40°
2026-05-04 19:25 35.12818 139.84775 4919 ft 275 kts 40°
2026-05-04 19:25 35.14249 139.86281 4395 ft 268 kts 38°
2026-05-04 19:25 35.15627 139.87729 4085 ft 254 kts 37°
2026-05-04 19:26 35.16913 139.89085 3979 ft 232 kts 37°
2026-05-04 19:26 35.18108 139.90340 3976 ft 228 kts 36°
2026-05-04 19:26 35.19341 139.91629 4001 ft 234 kts 36°
2026-05-04 19:26 35.20545 139.92896 3982 ft 222 kts 36°
2026-05-04 19:27 35.21667 139.94080 3908 ft 201 kts 36°
2026-05-04 19:27 35.22729 139.95199 3971 ft 203 kts 36°
2026-05-04 19:27 35.23792 139.96321 3969 ft 200 kts 35°
2026-05-04 19:27 35.24826 139.97365 3967 ft 191 kts 24°
2026-05-04 19:28 35.25616 139.97745 3979 ft 179 kts
2026-05-04 19:28 35.26804 139.97442 4032 ft 176 kts 332°
2026-05-04 19:28 35.27845 139.96772 4019 ft 162 kts 331°
2026-05-04 19:28 35.28804 139.96143 3998 ft 152 kts 330°
2026-05-04 19:29 35.29768 139.95488 4006 ft 161 kts 330°
2026-05-04 19:29 35.30737 139.94816 3991 ft 159 kts 329°
2026-05-04 19:29 35.31699 139.94143 3999 ft 160 kts 329°
2026-05-04 19:29 35.32666 139.93461 3998 ft 160 kts 328°
2026-05-04 19:30 35.33634 139.92776 3992 ft 161 kts 328°
2026-05-04 19:30 35.34596 139.92096 3998 ft 160 kts 329°
2026-05-04 19:30 35.35564 139.91411 3995 ft 160 kts 329°
2026-05-04 19:30 35.36533 139.90725 3893 ft 163 kts 328°
2026-05-04 19:31 35.37514 139.90029 3689 ft 160 kts 329°
2026-05-04 19:31 35.38462 139.89357 3484 ft 155 kts 328°
2026-05-04 19:31 35.39390 139.88700 3277 ft 153 kts 329°
2026-05-04 19:31 35.39797 139.88410 3194 ft 153 kts 329°
2026-05-04 19:32 35.39889 139.88345 3172 ft 152 kts 329°
2026-05-04 19:32 35.40841 139.87670 2962 ft 150 kts 330°
2026-05-04 19:32 35.41743 139.87030 2779 ft 148 kts 330°
2026-05-04 19:33 35.42624 139.86405 2558 ft 144 kts 330°
2026-05-04 19:33 35.43484 139.85795 2375 ft 141 kts 330°
2026-05-04 19:33 35.44329 139.85196 2180 ft 140 kts 331°
2026-05-04 19:33 35.45170 139.84597 2004 ft 138 kts 332°
2026-05-04 19:34 35.45990 139.84015 1814 ft 135 kts 332°
2026-05-04 19:34 35.46264 139.83821 1745 ft 135 kts 332°
2026-05-04 19:34 35.46722 139.83496 1635 ft 137 kts 332°
2026-05-04 19:34 35.47556 139.82904 1466 ft 140 kts 332°
2026-05-04 19:35 35.48407 139.82300 1260 ft 141 kts 332°
2026-05-04 19:35 35.49272 139.81684 1059 ft 146 kts 332°
2026-05-04 19:35 35.50127 139.81077 857 ft 147 kts 332°
2026-05-04 19:35 35.50991 139.80462 666 ft 144 kts 332°
2026-05-04 19:36 35.51872 139.79834 468 ft 145 kts 332°
2026-05-04 19:36 35.52737 139.79218 286 ft 143 kts 330°
2026-05-04 19:36 35.53590 139.78612 97 ft 142 kts 330°
2026-05-04 19:36 35.54406 139.78033 28 ft 124 kts 330°
2026-05-04 19:37 35.55088 139.77551 27 ft 102 kts 330°
2026-05-04 19:37 35.55645 139.77161 28 ft 65 kts 330°
2026-05-04 19:37 35.55728 139.77102 27 ft 5 kts 330°
2026-05-04 19:37 35.55814 139.77041 27 ft 16 kts 330°
2026-05-04 19:38 35.55915 139.76968 27 ft 18 kts 330°
2026-05-04 19:38 35.56032 139.76891 27 ft 19 kts 345°
2026-05-04 19:38 35.56152 139.76956 27 ft 20 kts 41°
2026-05-04 19:38 35.56164 139.77027 27 ft 8 kts 119°
2026-05-04 19:39 35.56117 139.77079 27 ft 10 kts 146°
2026-05-04 19:39 35.56072 139.77112 29 ft 12 kts 151°
2026-05-04 19:39 35.55957 139.77189 27 ft 17 kts 151°
2026-05-04 19:39 35.55847 139.77264 28 ft 20 kts 148°
2026-05-04 19:40 35.55722 139.77358 28 ft 23 kts 151°
2026-05-04 19:40 35.55580 139.77460 28 ft 25 kts 150°
2026-05-04 19:40 35.55475 139.77534 28 ft 27 kts 150°
2026-05-04 19:40 35.55253 139.77690 28 ft 20 kts 145°
2026-05-04 19:41 35.55231 139.77756 28 ft 0 kts 78°
2026-05-04 19:41 35.55235 139.77767 28 ft 3 kts 68°
2026-05-04 19:41 35.55240 139.77814 28 ft 7 kts 92°
2026-05-04 19:42 35.55200 139.77858 28 ft 10 kts 153°
2026-05-04 19:42 35.55121 139.77913 28 ft 16 kts 149°
2026-05-04 19:42 35.55008 139.77995 28 ft 22 kts 148°
2026-05-04 19:42 35.54861 139.78096 28 ft 27 kts 151°
2026-05-04 19:43 35.54684 139.78222 28 ft 32 kts 149°
2026-05-04 19:43 35.54475 139.78368 28 ft 37 kts 150°
2026-05-04 19:43 35.54355 139.78453 28 ft 0 kts 147°
2026-05-04 19:44 35.54342 139.78464 12 ft 5 kts 147°
2026-05-04 19:44 35.54307 139.78516 28 ft 11 kts 111°
2026-05-04 19:44 35.54329 139.78630 28 ft 17 kts 58°
2026-05-04 19:44 35.54401 139.78780 28 ft 24 kts 60°
2026-05-04 19:45 35.54493 139.78978 29 ft 29 kts 60°
2026-05-04 19:45 35.54607 139.79216 27 ft 35 kts 60°
2026-05-04 19:45 35.54737 139.79484 28 ft 38 kts 58°
2026-05-04 19:45 35.54774 139.79529 28 ft 3 kts 24°
2026-05-04 19:46 35.54821 139.79531 28 ft 11 kts 344°
2026-05-04 19:46 35.54904 139.79470 28 ft 18 kts 329°
2026-05-04 19:46 35.55037 139.79373 28 ft 27 kts 329°
2026-05-04 19:46 35.55222 139.79242 28 ft 34 kts 329°
2026-05-04 19:47 35.55444 139.79081 28 ft 40 kts 332°
2026-05-04 19:47 35.55661 139.78932 28 ft 21 kts 329°
2026-05-04 19:47 35.55695 139.78871 28 ft 0 kts 276°
2026-05-04 19:47 35.55690 139.78842 28 ft 7 kts 248°
2026-05-04 19:48 35.55650 139.78753 27 ft 16 kts 241°
2026-05-04 19:48 35.55617 139.78705 27 ft 6 kts 199°
2026-05-04 19:48 35.55562 139.78724 27 ft 0 kts 144°